Location: Newark
(48.0000°N, 67.0000°E)
Time: 11:04:35
(UTC+00:00)

Vanguard 2 - Pass Details

Date: 28 February 2020
Orbit: 552 x 2938 km, 32.9° (Epoch: 06 April)

Event Time Altitude Azimuth Distance (km) Brightness Sun altitude
Exits shadow 22:33:35 35° 164° (SSE) 2,802 10.1 -36.3°
Drops below altitude 10° 22:44:22 10° 119° (ESE) 5,156 12.0 -34.8°
Sets 22:49:29 0° 112° (ESE) 6,452 12.7 -34.1°
